HB9BTL-13 Weather Reports


Display with metric or nautical units.
time (UTC)temp
F
wind
direction
speed
MPH
gust
MPH
rain 1hr
in
rain 24hr
in
rain mn
in
humidity
%
barometer
mb
20260506154532 56 0.0 0.0 0.00 0.00 0.00 98 1009.5
20260506153027 56 0.0 0.0 0.00 0.00 0.00 10 1009.4
20260506151521 55 0.0 0.0 0.00 0.00 0.00 10 1009.4
20260506150017 56 0.0 0.0 0.00 0.00 0.00 10 1009.5
20260506144511 56 0.0 0.0 0.00 0.00 0.00 10 1009.3
20260506143006 56 0.0 0.0 0.00 0.00 0.00 10 1009.3
20260506141500 56 0.0 0.0 0.00 0.00 0.00 10 1009.3
20260506135955 55 0.0 0.0 0.00 0.00 0.00 10 1009.3
20260506134449 54 0.0 0.0 0.00 0.00 0.00 10 1009.3
20260506132944 54 0.0 0.0 0.00 0.00 0.00 10 1009.3
20260506131438 54 0.0 0.0 0.00 0.00 0.00 10 1009.3
20260506125933 54 0.0 0.0 0.00 0.00 0.00 10 1009.2
20260506124427 53 0.0 0.0 0.00 0.00 0.00 10 1009.1
20260506122923 53 0.0 0.0 0.00 0.00 0.00 10 1008.9
20260506121417 54 0.0 0.0 0.00 0.00 0.00 10 1008.9
20260506115912 54 0.0 0.0 0.00 0.00 0.00 10 1008.5
20260506114406 56 0.0 0.0 0.00 0.00 0.00 10 1008.1
20260506112901 58 0.0 0.0 0.00 0.00 0.00 96 1007.5
20260506111355 58 0.0 0.0 0.00 0.00 0.00 96 1007.3
20260506105850 58 0.0 0.0 0.00 0.00 0.00 96 1007.3
20260506104344 59 0.0 0.0 0.00 0.00 0.00 93 1007.3
20260506102839 59 0.0 0.0 0.00 0.00 0.00 92 1007.3
20260506101333 59 0.0 0.0 0.00 0.00 0.00 93 1007.4
20260506095828 59 0.0 0.0 0.00 0.00 0.00 95 1007.2
20260506094323 59 0.0 0.0 0.00 0.00 0.00 96 1007.3
20260506092818 58 0.0 0.0 0.00 0.00 0.00 98 1007.2
20260506091312 58 0.0 0.0 0.00 0.00 0.00 99 1007.1
20260506085807 58 0.0 0.0 0.00 0.00 0.00 98 1007.1
20260506084302 58 0.0 0.0 0.00 0.00 0.00 94 1007.0
20260506082756 58 0.0 0.0 0.00 0.00 0.00 99 1007.1
20260506081251 57 0.0 0.0 0.00 0.00 0.00 99 1007.0
20260506072734 57 0.0 0.0 0.00 0.00 0.00 10 1007.0
20260506071230 57 0.0 0.0 0.00 0.00 0.00 10 1007.1
20260506061208 54 0.0 0.0 0.00 0.00 0.00 10 1007.0
20260506051146 54 0.0 0.0 0.00 0.00 0.00 10 1007.2
20260506044135 53 0.0 0.0 0.00 0.00 0.00 10 1007.2
20260506042630 53 0.0 0.0 0.00 0.00 0.00 10 1007.3
20260506041124 53 0.0 0.0 0.00 0.00 0.00 10 1007.4
20260506035619 54 0.0 0.0 0.00 0.00 0.00 10 1007.4
20260506034114 54 0.0 0.0 0.00 0.00 0.00 10 1007.5
20260506032609 54 0.0 0.0 0.00 0.00 0.00 10 1007.7
20260506031104 54 0.0 0.0 0.00 0.00 0.00 10 1007.8
20260506025558 54 0.0 0.0 0.00 0.00 0.00 10 1008.0
20260506024053 54 0.0 0.0 0.00 0.00 0.00 10 1008.1
20260506022547 54 0.0 0.0 0.00 0.00 0.00 10 1007.9
20260506021042 54 0.0 0.0 0.00 0.00 0.00 10 1008.2
20260506015536 54 0.0 0.0 0.00 0.00 0.00 10 1008.5
20260506014031 54 0.0 0.0 0.00 0.00 0.00 10 1008.6
20260506012525 55 0.0 0.0 0.00 0.00 0.00 10 1008.9
20260506011021 55 0.0 0.0 0.00 0.00 0.00 10 1008.9
20260506005517 55 0.0 0.0 0.00 0.00 0.00 10 1009.0
20260506002504 55 0.0 0.0 0.00 0.00 0.00 10 1009.2
20260506000959 54 0.0 0.0 0.00 0.00 0.00 10 1009.5
20260505233948 56 0.0 0.0 0.00 0.00 0.00 10 1009.4
20260505232442 56 0.0 0.0 0.00 0.00 0.00 10 1009.7
20260505230940 56 0.0 0.0 0.00 0.00 0.00 10 1009.7
20260505225433 56 0.0 0.0 0.00 0.00 0.00 10 1009.8
20260505223927 56 0.0 0.0 0.00 0.00 0.00 10 1009.8
20260505222421 57 0.0 0.0 0.00 0.00 0.00 10 1009.8
20260505215414 56 0.0 0.0 0.00 0.00 0.00 10 1010.0
20260505213905 56 0.0 0.0 0.00 0.00 0.00 10 1010.0
20260505210854 57 0.0 0.0 0.00 0.00 0.00 10 1010.1
20260505205349 57 0.0 0.0 0.00 0.00 0.00 10 1010.2
20260505200835 57 0.0 0.0 0.00 0.00 0.00 10 1009.9
20260505195327 57 0.0 0.0 0.00 0.00 0.00 10 1009.8
20260505193826 57 0.0 0.0 0.00 0.00 0.00 10 1009.8
20260505190813 58 0.0 0.0 0.00 0.00 0.00 10 1009.4
20260505185305 58 0.0 0.0 0.00 0.00 0.00 10 1009.2
20260505183806 59 0.0 0.0 0.00 0.00 0.00 10 1009.1
20260505180751 59 0.0 0.0 0.00 0.00 0.00 10 1009.1
20260505173741 59 0.0 0.0 0.00 0.00 0.00 10 1009.4
20260505172233 59 0.0 0.0 0.00 0.00 0.00 10 1009.2
20260505165228 59 0.0 0.0 0.00 0.00 0.00 10 1009.0
20260505163717 59 0.0 0.0 0.00 0.00 0.00 10 1008.8
20260505162212 59 0.0 0.0 0.00 0.00 0.00 10 1009.3